Regional Weather Roundup
Issued by NWS Sioux Falls, SD

Home | Current Version | Previous Version | Graphics & Text | Print | Product List | Glossary Off
Versions: 1 2 3 4 5 6 7 8 9 10 11 12 13 14 15 16 17 18 19 20 21 22 23 24 25 26 27 28 29 30 31 32 33 34 35 36 37 38 39 40 41 42 43 44 45 46 47 48 49 50

000
ASUS43 KFSD 300410
RWRFSD

WEATHER ROUNDUP FOR SE SOUTH DAKOTA/SW MINNESOTA/NW IOWA
NATIONAL WEATHER SERVICE SIOUX FALLS SD
1100 PM CDT FRI MAY 29 2015

NOTE: "FAIR" INDICATES FEW OR NO CLOUDS BELOW 12,000 FEET WITH NO
SIGNIFICANT WEATHER AND OR OBSTRUCTIONS TO VISIBILITY.


SDZ038>040-050-052>070-300500-
SOUTHEAST SOUTH DAKOTA

CITY           SKY/WX    TMP DP  RH WIND       PRES   REMARKS
BROOKINGS      MOCLDY    46  41  81 N12       30.18R
CHAMBERLAIN    PTCLDY    47  43  87 NW6       30.24R
HURON          PTCLDY    44  40  85 N9        30.21R
MADISON        FAIR      46  46 100 N20       30.17R
MITCHELL       CLOUDY    51  43  74 N12       30.21R
SIOUX FALLS    MOCLDY    49  43  80 N14       30.14F
WINNER         FAIR      43  37  79 NW8       30.25R
YANKTON        MOCLDY    50  43  76 NW17G23   30.15S
$$

MNZ071-072-080-081-089-090-097-098-300500-
SOUTHWEST MINNESOTA

CITY           SKY/WX    TMP DP  RH WIND       PRES   REMARKS
FAIRMONT       CLOUDY    54  48  82 N23G30    30.04S
JACKSON        CLOUDY    52  50  93 N15G23    30.08R
LUVERNE        CLOUDY    50  43  76 N16G23    30.12S
MARSHALL       MOCLDY    48  41  76 N15       30.13S
MONTEVIDEO     PTCLDY    50  46  87 N10       30.15S
PIPESTONE      MOCLDY    48  43  81 N10G18    30.13R
REDWOOD FALLS  CLOUDY    53  47  79 N10       30.10R
TRACY          CLOUDY    49  46  89 N13G18    30.13R
WINDOM         CLOUDY    52  48  87 NW18G24   30.09S
WORTHINGTON    CLOUDY    48  43  81 N18G24    30.10R
$$

IAZ001>003-012>014-020>022-031-032-NEZ013-014-SDZ071-300500-
NORTHWEST IOWA

CITY           SKY/WX    TMP DP  RH WIND       PRES   REMARKS
CHEROKEE       CLOUDY    51  49  93 N15G23    30.08S
DENISON        CLOUDY    54  54 100 N16G26    30.04R
ESTHERVILLE    CLOUDY    52  50  93 N25G33    30.05R
LE MARS        CLOUDY    52  45  76 N20G26    30.12S
ORANGE CITY    CLOUDY    46  43  87 N15G24    30.11R
SHELDON        CLOUDY    50  46  87 N21G29    30.09S
SIOUX CITY     CLOUDY    54  47  77 N20       30.10S
SPENCER        CLOUDY    52  47  83 N25G32    30.06S
STORM LAKE     CLOUDY    52  50  93 N22G28    30.06S
$$

ABBREVIATIONS USED IN REMARKS
   TC - TEMPERATURE IN CELSIUS
  WCI - WIND CHILL INDEX
   HX - HEAT INDEX
  VSB - VISIBILITY



USA.gov is the U.S. government's official web portal to all federal, state and local government web resources and services.